Temperature
5 4 4 4 4 5 5 4 4 5 5 5 4 5 5 5 5 5 5 5 6 6 7 7 7 7 8 8 8 8 8 8 9 8 9 9 9 9 9 9 10 10 10 10
4 4 4 4 4 4 4 4 4 5 5 5 4 4 5 5 5 5 5 5 5 6 6 7 7 7 7 8 8 8 8 8 8 8 8 8 8 8 9 9 9 9 9 9
4 4 4 5 4 4 4 4 4 5 4 4 4 5 5 4 4 4 4 5 5 5 6 6 6 7 7 7 7 7 7 7 8 8 8 8 8 8 8 8 8 9 9 9
3 4 4 4 4 4 4 5 5 4 4 3 4 4 4 4 4 4 4 4 4 5 5 6 6 6 7 7 7 7 7 7 7 7 7 7 7 7 7 7 8 8 8 8
3 3 4 4 4 4 4 4 4 4 3 2 3 3 4 3 3 3 3 3 4 4 5 5 5 6 6 6 6 6 6 7 7 7 7 7 7 7 7 7 7 7 8 8
3 3 3 3 4 4 3 3 3 2 2 2 3 2 3 2 3 3 3 3 3 4 4 5 5 5 6 6 6 6 6 6 6 6 6 6 6 6 6 7 7 7 7 7
2 3 3 3 3 3 3 3 2 3 2 2 2 2 3 2 2 2 2 2 3 3 4 4 5 5 5 5 5 5 5 5 5 5 5 6 6 6 6 6 6 6 6 6
2 2 3 3 3 3 3 3 3 3 3 2 2 2 2 2 2 2 2 2 2 3 3 4 4 4 4 5 5 5 5 5 5 5 5 5 5 5 5 6 6 6 6 6
1 2 2 2 3 3 2 2 2 1 0 1 1 1 1 2 2 1 1 1 2 2 3 3 4 4 4 4 4 4 4 4 4 4 4 5 5 5 5 5 5 5 6 6
1 1 1 2 2 2 2 1 0 1 1 2 2 1 2 2 1 1 0 1 1 2 2 3 3 3 3 4 4 4 4 4 4 4 4 4 4 4 4 4 5 5 5 5
1 0 0 1 1 1 1 1 -0 -1 0 1 1 2 2 1 1 -0 -0 0 1 1 2 2 2 3 3 3 3 3 3 3 3 3 3 4 4 4 4 4 4 4 5 5
-0 -1 -1 0 1 1 1 0 -0 0 -0 -1 -0 1 2 1 0 -0 -0 0 1 1 1 2 2 2 2 2 2 3 3 3 3 3 3 3 3 3 3 3 4 4 4 4
-1 -1 -0 1 1 -0 -0 -0 -1 -1 -1 -2 -0 2 1 -0 -0 -0 -0 0 0 1 1 1 1 2 2 2 2 2 2 2 2 2 3 3 3 3 3 3 3 3 3 4
-0 -2 -1 1 1 -1 -1 -1 -1 -1 -1 -1 -1 1 1 -0 -1 -1 -0 -0 -0 -0 0 0 1 1 1 1 1 1 1 2 2 2 2 2 2 2 3 3 3 3 3 3
-1 -2 -2 -2 -1 -1 -1 -1 -1 -1 -1 -0 0 -0 0 -0 -1 -1 -1 -1 -1 -1 -0 -0 0 0 0 0 0 0 1 1 1 2 2 2 2 2 2 2 2 2 2 3
-3 -3 -3 -2 -1 -2 -1 -1 -1 -1 -1 -1 -1 -0 -0 -1 -1 -1 -1 -1 -1 -1 -1 -1 -1 -0 -0 -0 0 0 1 1 1 1 1 1 1 1 1 1 2 2 2 2
-4 -4 -3 -2 -3 -2 -2 -1 -1 -2 -2 -2 -1 -1 -1 -2 -2 -2 -1 -1 -1 -1 -1 -1 -1 -1 -1 -1 -0 -0 0 0 0 1 1 1 1 1 1 1 1 1 2 2
-4 -4 -4 -4 -3 -2 -0 -2 -2 -2 -2 -2 -2 -2 -2 -2 -2 -1 -1 -1 -1 -1 -1 -1 -1 -1 -1 -1 -1 -1 -0 -0 -0 0 0 1 1 1 1 1 1 1 1 1
-4 -4 -5 -4 -4 -2 -1 -2 -3 -3 -2 -3 -3 -2 -2 -2 -2 -1 -1 -1 -1 -2 -2 -2 -2 -2 -2 -1 -1 -1 -1 -1 -0 -0 -0 -0 0 0 0 1 1 1 1 1
-5 -5 -5 -5 -3 -2 -1 -2 -3 -3 -2 -2 -3 -3 -3 -3 -3 -2 -1 -1 -2 -2 -2 -2 -2 -2 -2 -2 -2 -2 -1 -1 -1 -1 -1 -1 -0 -0 -0 0 0 0 0 0
-5 -5 -5 -5 -4 -3 -2 -3 -2 -2 -1 -2 -2 -2 -3 -4 -3 -2 -2 -2 -2 -2 -2 -2 -2 -2 -2 -2 -2 -2 -2 -2 -1 -1 -1 -1 -1 -1 -1 -1 -0 -0 -0 -0
-5 -5 -6 -5 -5 -2 -3 -4 -3 -2 -1 -2 -2 -2 -3 -2 -2 -2 -2 -2 -3 -3 -2 -2 -3 -2 -2 -2 -2 -2 -2 -2 -2 -2 -2 -2 -1 -1 -1 -1 -1 -1 -1 -1
-5 -5 -5 -4 -2 -2 -3 -2 -2 -2 -2 -2 -2 -2 -3 -3 -3 -3 -3 -3 -3 -3 -3 -3 -3 -3 -3 -3 -3 -3 -3 -2 -2 -2 -2 -2 -2 -2 -2 -2 -1 -1 -1 -1
-6 -6 -6 -6 -5 -3 -2 -2 -2 -2 -2 -2 -2 -2 -3 -3 -3 -3 -3 -3 -3 -3 -3 -3 -3 -3 -3 -3 -3 -3 -3 -3 -3 -3 -2 -2 -2 -2 -2 -2 -2 -2 -2 -2
-5 -7 -6 -6 -5 -4 -3 -2 -1 -2 -2 -2 -2 -3 -3 -3 -3 -3 -4 -4 -4 -4 -4 -4 -4 -4 -4 -4 -3 -3 -3 -3 -3 -3 -3 -3 -3 -3 -3 -3 -3 -2 -2 -3
-6 -6 -5 -4 -3 -4 -2 -1 -2 -2 -2 -3 -3 -3 -3 -4 -4 -4 -4 -4 -4 -4 -4 -4 -4 -4 -4 -4 -4 -4 -4 -3 -3 -3 -3 -3 -3 -3 -3 -3 -3 -3 -3 -3
Wind_Speed
3 4 1 2 3 4 3 4 6 7 4 3 6 10 10 7 4 5 5 5 6 6 5 3 3 3 1 1 2 2 2 1 2 1 1 1 1 1 1 2 3 3 4 4
4 2 3 2 1 1 3 4 5 6 3 3 6 9 8 6 3 3 3 4 5 5 5 4 3 2 1 1 1 2 2 1 1 1 1 2 1 1 1 1 2 3 3 3
1 2 2 1 1 2 3 4 4 5 6 3 4 6 4 4 1 3 3 4 4 4 4 4 4 3 0 1 1 1 1 1 1 1 1 1 1 1 0 1 1 1 2 3
1 3 2 1 2 1 4 3 4 4 3 4 2 5 5 3 4 5 6 5 5 5 4 4 4 2 1 1 1 1 0 0 1 1 2 2 2 2 2 1 1 1 2 3
2 2 2 2 3 1 3 4 3 2 1 3 1 3 6 3 4 6 6 6 6 5 5 4 4 3 2 1 0 1 1 1 1 1 2 2 2 1 0 0 1 1 1 2
2 2 1 2 3 1 2 2 2 3 3 3 3 3 5 3 4 6 7 7 6 6 6 5 5 3 2 1 1 1 1 1 1 1 1 1 2 2 2 1 2 1 1 2
5 3 2 1 3 3 3 3 4 5 3 5 1 2 6 4 3 3 5 7 7 6 6 6 6 4 3 2 2 1 1 2 2 1 2 1 2 3 4 4 3 3 2 2
3 5 3 3 1 1 1 2 3 2 4 5 2 4 5 4 4 4 4 5 6 7 6 6 5 4 3 3 2 2 2 2 2 2 2 1 2 2 2 3 3 3 3 3
1 4 4 3 2 1 1 1 1 2 1 3 5 5 7 3 6 6 7 7 7 7 7 7 6 4 3 3 3 3 2 2 2 2 2 1 1 2 2 2 2 2 2 2
3 3 5 4 2 3 1 3 3 2 1 4 5 4 4 6 6 7 8 8 8 8 7 6 5 5 4 3 3 3 3 3 3 2 2 2 2 2 2 1 2 2 2 2
2 1 4 3 1 1 2 2 2 1 1 2 4 6 3 3 3 5 6 7 7 8 7 6 6 5 4 4 3 3 3 4 3 3 2 2 2 2 1 1 2 2 2 2
1 2 3 5 2 0 1 2 3 1 3 2 3 6 3 2 3 4 6 7 7 7 6 6 6 5 4 4 4 4 4 3 3 3 3 2 2 1 1 1 2 2 2 2
2 2 3 5 3 3 1 0 1 1 1 3 3 7 2 5 6 6 6 7 7 7 6 6 5 5 4 4 4 4 4 4 3 3 3 2 2 1 1 2 2 2 2 2
3 2 4 6 4 2 4 4 2 2 3 5 8 10 10 9 10 9 8 7 7 7 6 6 6 5 5 4 4 4 5 4 3 3 2 2 3 2 2 2 1 2 2 2
3 2 4 6 7 5 7 8 6 8 8 8 9 10 13 9 8 8 7 7 7 7 7 7 6 6 5 5 5 4 4 4 3 3 3 3 3 3 2 2 2 2 2 2
2 1 2 4 4 6 9 11 9 9 8 10 11 13 9 7 6 6 6 6 7 7 8 7 7 7 6 6 5 5 5 4 3 2 2 2 2 2 3 2 2 2 2 2
2 2 0 4 5 5 8 8 8 6 6 6 9 9 6 7 8 7 7 7 7 7 7 7 7 6 7 6 5 5 5 4 3 3 3 2 2 2 3 2 2 2 2 2
5 4 2 2 4 5 6 1 4 6 6 6 7 7 6 8 9 7 5 5 6 6 7 7 6 7 7 6 5 5 5 4 3 3 3 3 3 3 3 2 2 2 2 2
4 5 2 1 3 9 6 2 2 4 6 5 7 8 7 7 6 4 4 3 4 5 6 5 5 6 6 6 5 5 5 4 3 3 3 3 3 3 3 3 3 2 2 2
3 3 3 2 3 6 5 2 1 2 5 3 4 6 5 4 4 6 5 5 5 5 4 5 5 5 5 6 5 4 4 4 4 4 4 3 3 2 3 3 3 2 2 2
2 2 4 5 6 9 5 2 2 2 6 4 3 5 4 4 6 7 6 6 5 5 5 4 4 4 5 5 4 4 4 4 4 4 4 4 3 3 2 2 2 2 2 2
7 6 6 5 5 9 3 4 5 6 3 3 4 4 5 7 7 7 6 6 5 5 5 5 5 5 5 5 4 4 4 4 4 3 3 4 3 3 3 2 2 2 2 2
8 8 6 9 9 4 4 6 5 2 3 4 4 5 5 6 7 7 5 5 5 4 4 5 4 5 5 5 4 4 5 5 4 3 4 4 4 3 3 2 2 2 2 2
5 4 4 6 10 7 7 7 5 5 5 5 5 6 4 6 7 6 5 5 4 4 4 4 4 5 5 5 5 4 4 4 3 3 4 4 3 4 4 3 3 2 2 2
6 6 5 8 9 7 6 7 7 6 5 5 5 5 5 5 6 5 5 4 4 4 4 3 3 4 5 5 5 5 4 4 4 4 4 4 4 4 4 4 3 3 2 2
7 8 8 9 7 5 6 5 5 5 5 5 5 5 4 4 5 5 4 4 3 4 4 4 4 4 4 4 5 5 4 3 3 3 4 4 3 3 3 3 4 6 5 6
Wind_Direction
23 62 21 258 229 233 241 245 269 273 281 280 259 268 282 290 291 293 302 301 292 281 288 292 290 285 269 189 160 160 160 165 133 155 190 210 234 259 202 183 168 167 164 172
41 354 279 264 252 254 245 263 274 292 304 285 280 278 275 278 269 280 302 309 300 311 320 319 312 299 231 172 175 180 184 176 167 204 217 225 218 222 208 196 175 170 166 173
158 279 310 344 346 316 273 237 256 283 314 313 315 295 270 291 284 336 337 324 319 314 306 296 295 275 258 179 191 202 206 181 192 207 193 108 72 54 210 174 178 194 186 189
302 303 324 350 311 301 281 269 262 284 315 300 3 288 274 299 312 333 331 330 320 322 324 306 300 289 266 255 252 258 231 151 188 184 193 176 176 218 243 232 213 211 197 198
302 317 340 301 286 253 253 303 294 282 225 304 271 238 287 343 317 313 315 321 321 321 323 312 307 276 269 265 27 335 345 330 272 247 216 192 208 227 208 197 190 214 212 206
283 291 274 265 309 268 286 347 23 50 75 295 249 205 285 303 292 311 320 323 321 325 331 326 328 338 348 357 33 41 347 293 290 285 258 203 206 203 184 216 212 237 247 232
333 326 338 350 356 6 35 45 11 356 358 263 248 225 258 285 300 308 317 323 324 332 337 336 340 342 353 355 341 341 322 299 301 293 277 239 226 217 208 211 213 218 234 247
337 308 327 352 348 282 336 112 144 243 268 293 304 253 267 291 322 337 336 326 338 342 341 336 331 329 331 333 330 323 304 292 293 293 282 252 239 234 239 236 227 226 232 240
223 281 326 344 332 106 89 99 161 152 289 286 282 292 300 314 345 355 356 353 346 340 339 335 336 336 328 328 326 315 309 306 306 298 293 269 261 251 246 249 242 243 247 242
168 274 306 320 4 15 85 132 83 99 284 288 295 282 282 311 324 337 345 342 334 337 338 338 340 340 330 327 332 337 333 329 322 307 303 308 285 273 267 255 252 255 256 247
142 186 311 349 21 319 45 65 89 122 185 219 286 279 258 269 300 314 318 321 325 329 331 335 340 341 338 339 340 336 337 339 337 329 321 313 302 288 290 280 275 266 263 250
124 129 276 268 264 310 173 163 143 173 261 228 253 275 310 314 313 317 316 319 325 326 328 336 341 343 348 344 341 339 334 329 320 323 324 312 303 298 291 291 289 285 278 267
133 110 343 336 346 10 4 13 131 150 155 205 231 271 329 349 336 330 320 318 325 330 335 340 348 350 344 339 338 340 332 323 328 337 331 323 318 326 310 292 301 299 290 291
114 153 193 224 252 244 277 277 227 169 216 245 242 269 297 317 322 323 320 317 322 327 333 342 345 342 339 338 335 331 326 325 329 332 330 331 328 322 310 310 316 306 299 300
98 216 245 261 269 259 259 261 234 222 225 236 266 270 284 298 301 301 307 316 324 328 332 337 338 338 338 336 333 326 322 330 334 334 336 325 323 331 335 338 332 323 319 315
85 193 281 283 274 266 270 262 245 238 241 250 272 279 283 299 303 305 309 315 316 318 325 330 334 337 337 332 330 329 328 330 334 331 323 325 336 342 340 335 337 335 335 334
145 143 262 279 316 320 275 245 219 222 220 216 244 263 310 314 308 296 297 304 303 308 317 321 323 324 322 322 323 325 323 330 337 335 331 333 340 341 334 331 342 338 335 342
156 147 173 296 0 260 254 222 207 229 246 236 257 281 293 291 297 288 283 283 293 307 314 316 317 319 320 321 325 327 330 338 340 341 337 338 346 340 335 345 345 341 338 335
164 154 157 192 272 279 291 255 184 215 270 242 250 278 298 315 316 303 298 290 281 295 302 305 309 312 320 323 327 333 336 339 343 345 338 335 337 332 340 348 344 338 340 333
90 125 146 166 236 256 265 243 182 128 286 267 242 272 298 344 327 301 318 322 312 313 313 314 319 325 327 324 329 337 336 342 342 339 331 329 333 332 334 333 332 332 333 330
135 152 190 204 237 265 258 209 125 168 267 297 254 265 266 243 253 283 307 314 310 314 317 321 326 328 322 324 336 337 340 338 330 335 338 342 343 337 333 339 341 336 341 351
184 183 196 181 217 255 198 143 186 232 281 285 275 269 262 269 286 295 300 306 316 323 327 331 333 329 330 337 344 341 337 331 335 343 345 346 343 344 354 359 351 352 356 0
206 197 194 202 223 254 192 211 235 242 259 266 267 273 270 277 289 299 302 307 314 317 323 330 333 330 336 343 348 338 329 337 347 355 352 351 353 356 357 4 359 358 4 1
244 197 205 252 261 256 249 251 254 240 246 267 270 271 263 272 283 293 300 308 315 320 323 331 335 338 337 341 345 335 331 340 356 4 359 359 2 3 8 9 7 3 357 352
219 182 212 254 271 287 264 235 244 253 255 266 275 268 262 266 279 285 293 301 309 318 327 330 329 328 328 337 346 343 345 356 11 8 2 3 6 8 9 10 8 354 347 331
195 190 197 234 236 226 261 263 243 244 254 259 272 287 283 260 268 281 288 298 309 318 329 331 333 331 330 339 343 342 348 359 13 7 4 4 4 4 6 9 9 12 5 1
Height
1489 1493 1495 1494 1494 1493 1494 1495 1494 1489 1485 1485 1482 1479 1474 1472 1471 1468 1466 1465 1463 1462 1462 1463 1462 1462 1462 1463 1464 1466 1467 1468 1469 1469 1470 1470 1471 1472 1473 1474 1476 1478 1480 1481
1494 1495 1493 1493 1493 1493 1493 1493 1492 1487 1484 1483 1481 1476 1471 1469 1468 1467 1465 1464 1462 1460 1459 1459 1459 1459 1460 1460 1462 1463 1465 1465 1466 1467 1468 1469 1469 1469 1470 1471 1472 1474 1476 1478
1495 1496 1493 1492 1492 1492 1491 1492 1490 1488 1485 1483 1483 1475 1470 1467 1466 1465 1464 1463 1462 1460 1458 1458 1458 1457 1457 1458 1460 1461 1462 1463 1465 1466 1466 1466 1466 1466 1467 1468 1469 1471 1473 1475
1497 1495 1493 1492 1492 1491 1491 1488 1488 1487 1489 1489 1487 1484 1470 1467 1466 1464 1463 1462 1461 1459 1457 1457 1456 1456 1456 1457 1458 1460 1460 1462 1463 1464 1464 1462 1462 1463 1464 1465 1466 1468 1470 1472
1498 1496 1494 1493 1491 1491 1490 1488 1488 1488 1490 1492 1489 1490 1474 1469 1467 1464 1463 1461 1460 1458 1457 1456 1455 1455 1455 1456 1456 1457 1458 1459 1460 1461 1461 1460 1461 1462 1462 1463 1463 1465 1466 1468
1498 1496 1495 1494 1491 1490 1489 1489 1489 1492 1494 1494 1487 1489 1478 1473 1469 1465 1462 1461 1459 1457 1456 1455 1454 1454 1454 1454 1455 1456 1456 1457 1457 1458 1458 1458 1458 1459 1459 1459 1460 1461 1462 1464
1500 1497 1495 1494 1492 1491 1492 1494 1498 1496 1499 1493 1487 1486 1478 1470 1467 1466 1464 1461 1459 1458 1456 1455 1454 1453 1452 1452 1453 1453 1454 1454 1455 1455 1455 1455 1455 1456 1457 1457 1457 1458 1459 1460
1507 1502 1497 1496 1495 1495 1495 1495 1500 1501 1499 1493 1487 1484 1474 1468 1466 1465 1464 1462 1460 1457 1456 1455 1454 1453 1452 1451 1451 1451 1451 1451 1452 1452 1452 1452 1453 1454 1454 1454 1454 1455 1456 1457
1509 1504 1499 1497 1496 1495 1496 1499 1499 1504 1507 1503 1491 1484 1473 1466 1465 1463 1463 1461 1459 1458 1456 1454 1453 1452 1451 1450 1450 1450 1450 1450 1450 1450 1450 1450 1450 1451 1451 1451 1451 1452 1452 1453
1507 1509 1502 1499 1496 1497 1497 1499 1504 1506 1504 1498 1490 1486 1478 1470 1467 1465 1463 1461 1459 1457 1455 1453 1452 1451 1450 1449 1449 1449 1449 1448 1448 1448 1448 1448 1448 1448 1448 1448 1448 1448 1449 1450
1506 1510 1506 1501 1500 1500 1500 1502 1504 1509 1507 1503 1497 1483 1473 1471 1469 1467 1465 1462 1459 1456 1454 1452 1451 1450 1449 1449 1448 1448 1447 1446 1446 1446 1446 1445 1445 1445 1445 1445 1445 1446 1446 1447
1507 1511 1510 1505 1500 1500 1500 1502 1505 1506 1507 1509 1503 1487 1471 1470 1468 1467 1465 1462 1459 1456 1454 1452 1450 1449 1448 1448 1447 1446 1446 1445 1444 1444 1444 1444 1443 1443 1443 1443 1443 1443 1443 1444
1508 1511 1511 1504 1505 1504 1503 1502 1504 1506 1508 1509 1503 1484 1471 1470 1468 1466 1464 1462 1459 1456 1453 1451 1449 1447 1447 1446 1445 1445 1444 1443 1442 1442 1442 1441 1441 1440 1440 1440 1440 1441 1441 1441
1505 1511 1511 1506 1502 1505 1505 1502 1503 1504 1505 1502 1494 1481 1472 1470 1469 1466 1463 1461 1458 1456 1453 1451 1448 1447 1445 1445 1444 1443 1442 1441 1440 1439 1439 1438 1438 1437 1437 1437 1438 1438 1438 1438
1506 1510 1510 1506 1503 1503 1501 1498 1499 1499 1496 1494 1484 1481 1472 1471 1469 1466 1463 1460 1457 1455 1452 1450 1448 1446 1444 1443 1442 1442 1440 1439 1437 1437 1436 1436 1436 1435 1435 1435 1435 1435 1435 1435
1507 1511 1510 1506 1501 1501 1498 1493 1492 1492 1490 1488 1483 1477 1470 1469 1467 1464 1462 1459 1457 1454 1452 1450 1447 1445 1443 1442 1441 1440 1438 1437 1436 1435 1435 1435 1434 1433 1433 1433 1433 1433 1433 1433
1509 1511 1511 1507 1505 1499 1494 1486 1486 1485 1483 1483 1480 1474 1470 1468 1465 1463 1460 1458 1456 1454 1452 1449 1447 1444 1442 1440 1439 1438 1436 1435 1434 1433 1433 1433 1432 1431 1432 1432 1431 1431 1430 1430
1508 1510 1514 1512 1508 1502 1483 1480 1480 1480 1478 1478 1474 1471 1469 1467 1463 1461 1459 1457 1455 1453 1451 1448 1446 1443 1441 1439 1438 1436 1434 1433 1432 1432 1431 1431 1430 1430 1430 1430 1429 1428 1428 1428
1503 1508 1513 1514 1511 1496 1482 1479 1480 1481 1476 1472 1471 1469 1467 1465 1461 1458 1457 1455 1454 1452 1450 1448 1445 1443 1440 1438 1436 1435 1433 1432 1431 1430 1430 1429 1428 1428 1428 1427 1427 1427 1426 1426
1505 1506 1512 1514 1508 1494 1478 1477 1475 1478 1475 1468 1467 1467 1465 1464 1463 1458 1455 1454 1452 1450 1449 1446 1444 1442 1439 1437 1435 1433 1432 1430 1429 1429 1428 1428 1427 1427 1426 1426 1425 1425 1425 1424
1507 1509 1510 1510 1507 1489 1477 1475 1476 1480 1472 1466 1465 1464 1464 1463 1461 1457 1454 1452 1450 1449 1447 1445 1443 1440 1438 1436 1434 1432 1431 1429 1428 1428 1427 1426 1426 1426 1425 1425 1424 1424 1424 1423
1500 1504 1507 1506 1504 1486 1473 1474 1475 1470 1465 1464 1463 1462 1461 1459 1457 1454 1452 1450 1448 1446 1445 1443 1441 1439 1437 1435 1433 1431 1430 1429 1428 1427 1426 1425 1425 1424 1424 1423 1423 1423 1422 1422
1492 1489 1489 1488 1479 1470 1468 1467 1466 1465 1464 1462 1461 1460 1458 1456 1454 1452 1449 1448 1446 1445 1443 1441 1439 1437 1436 1434 1432 1430 1429 1428 1427 1426 1425 1425 1424 1424 1423 1422 1422 1421 1421 1420
1485 1482 1483 1481 1469 1465 1464 1463 1463 1462 1461 1460 1459 1457 1455 1453 1451 1449 1447 1446 1444 1443 1441 1440 1438 1436 1434 1433 1431 1430 1428 1427 1426 1425 1424 1424 1423 1423 1422 1421 1421 1420 1420 1419
1476 1478 1478 1475 1465 1461 1458 1458 1458 1458 1457 1456 1455 1454 1452 1450 1449 1447 1445 1444 1442 1441 1440 1438 1437 1435 1433 1432 1430 1429 1428 1427 1426 1425 1424 1423 1422 1422 1421 1421 1420 1420 1419 1419
1467 1468 1470 1464 1458 1458 1455 1454 1454 1454 1453 1452 1451 1449 1448 1447 1446 1445 1443 1442 1441 1439 1438 1437 1436 1434 1433 1431 1430 1429 1428 1427 1426 1424 1424 1423 1422 1421 1421 1420 1419 1419 1419 1418